Wind_Speed
10 11 11 12 12 13 12 9 7 8 8 7 6 7 6 5 5 6 6 8 9 10 10 9 6 4 5 5 5 3 1 4 7 10 11 11 10 11 11 11 11 11 13 15 14 13 13 14 14
8 8 8 10 12 13 11 8 6 6 6 6 6 6 6 7 6 4 4 5 6 7 7 8 8 7 4 2 3 3 2 2 1 4 7 9 10 9 9 10 11 11 12 12 12 13 13 13 14
5 6 6 8 12 10 9 7 5 4 4 5 5 5 5 7 9 6 5 5 5 5 5 5 5 6 6 5 2 1 1 2 2 3 3 4 7 9 10 10 9 10 11 11 12 13 13 13 14
3 3 5 8 10 11 11 6 3 2 1 3 3 4 4 4 5 7 8 6 5 4 3 3 3 4 3 3 3 4 3 4 4 5 5 6 7 8 9 9 9 11 11 12 12 13 13 13 13
1 2 5 8 9 11 10 6 3 1 1 2 2 3 4 3 2 2 3 4 5 3 2 1 1 2 3 5 5 4 4 4 4 6 8 9 10 10 9 10 11 11 11 12 13 14 15 15 16
1 3 6 8 9 11 10 6 3 2 2 4 5 5 5 6 4 3 2 2 1 1 1 0 2 3 3 5 6 7 7 8 8 7 8 8 9 11 13 13 13 14 14 14 14 15 15 16 16
5 6 8 10 10 11 11 8 5 4 3 5 6 8 8 9 8 5 5 6 6 6 6 5 5 5 5 6 7 8 10 11 12 12 13 12 12 12 12 12 13 14 17 18 18 18 18 18 18
9 10 11 12 14 14 13 11 7 7 5 6 7 7 8 9 9 6 7 7 7 8 10 10 10 9 9 8 8 9 9 11 13 15 17 17 17 17 17 18 18 17 17 16 17 19 21 22 22
14 14 14 14 16 17 15 12 9 9 8 10 8 8 7 7 9 9 9 10 10 10 11 12 12 13 13 13 13 12 12 12 13 14 15 15 17 19 21 22 23 23 24 23 22 22 22 22 22
17 18 17 17 18 17 16 13 11 11 10 12 12 10 8 8 10 12 13 12 13 14 15 15 15 14 15 15 15 16 16 16 16 15 15 16 17 18 18 20 21 24 26 27 27 27 27 27 27
20 21 21 21 20 17 15 15 14 14 13 13 14 14 12 12 13 14 15 15 15 16 17 18 18 18 17 16 16 16 17 17 18 19 19 21 21 21 21 21 21 22 23 25 26 28 30 31 32
22 23 23 23 21 18 16 16 16 17 14 15 15 15 16 17 16 16 16 16 15 15 16 17 17 18 17 17 17 17 17 18 20 20 21 22 23 24 25 26 27 27 26 27 27 29 29 29 31
24 25 25 25 23 20 18 19 18 19 19 17 17 17 17 18 18 19 17 18 17 17 18 18 19 18 18 18 18 18 18 20 22 23 25 26 26 26 27 27 29 29 31 31 31 33 34 35 35
27 28 28 27 25 23 23 22 21 20 20 19 19 19 18 18 17 18 18 18 19 20 20 21 20 20 20 19 20 20 21 21 22 23 24 26 27 29 30 31 33 33 34 35 35 35 37 37 38
30 30 29 28 27 26 27 24 23 20 21 21 21 20 20 20 20 19 19 20 22 23 23 22 21 21 21 22 23 22 22 23 24 25 25 26 28 30 32 33 35 36 38 39 39 40 40 42 43
31 31 31 30 30 28 31 26 23 23 23 23 22 22 22 22 22 22 22 22 22 21 21 21 20 21 23 23 24 24 24 23 23 24 25 26 27 29 31 33 35 39 40 42 43 46 46 46 47
33 33 34 34 30 31 32 31 26 26 24 23 24 25 26 25 24 25 25 23 22 22 21 20 20 22 23 24 25 26 26 26 26 26 27 29 31 32 32 33 35 37 40 43 46 49 52 52 51
37 33 33 31 32 33 31 31 29 29 26 25 27 29 28 28 27 27 27 26 24 22 22 23 24 24 25 27 29 30 30 30 30 32 32 33 33 33 36 39 41 42 43 44 46 48 51 54 57
36 35 33 34 35 34 34 33 34 32 30 30 30 30 29 29 29 29 28 28 27 26 25 26 28 29 30 30 32 33 34 35 35 36 36 38 39 40 40 40 40 43 47 49 52 54 56 56 59
35 35 31 33 34 39 38 37 36 36 31 33 33 33 32 32 30 30 29 29 29 29 30 29 31 33 35 35 36 36 36 36 36 36 35 38 40 42 45 47 49 50 53 55 58 60 61 64 64
35 36 34 38 40 42 43 42 39 37 33 34 36 36 36 34 33 32 32 32 33 33 32 32 32 34 34 34 36 37 37 38 39 39 40 43 44 46 50 52 55 58 58 61 64 65 67 68 68
37 38 37 39 43 43 47 48 42 38 35 37 36 36 34 33 33 33 34 35 35 35 34 32 32 33 34 35 35 34 34 36 39 43 47 49 52 54 56 59 61 64 66 67 68 70 71 72 73
39 41 41 43 46 48 49 50 41 41 36 37 37 36 35 34 34 35 37 37 36 36 36 34 35 37 38 38 37 37 38 40 41 45 48 51 54 58 61 63 66 67 70 71 73 74 77 78 80
43 45 45 46 47 54 49 49 46 45 38 40 35 34 32 33 35 37 36 36 37 37 36 37 39 40 40 41 42 42 43 45 48 49 52 55 58 61 64 67 68 69 72 74 76 79 81 83 83
43 43 46 53 56 54 52 52 47 45 37 34 32 33 35 35 35 35 34 35 36 37 39 40 41 41 43 46 48 48 48 49 51 53 54 57 58 60 64 67 68 71 74 75 76 79 82 84 87
51 48 49 55 56 54 51 51 49 39 35 32 31 32 33 34 35 34 35 38 39 39 40 42 44 47 49 50 49 51 54 54 53 53 55 58 60 63 66 69 72 73 76 79 82 85 87 88 89
56 54 42 48 50 54 51 46 43 37 32 32 32 31 31 31 33 35 36 40 42 41 42 45 47 49 50 53 54 54 57 59 58 55 57 60 62 65 69 74 77 79 83 87 88 89 90 89 85
57 55 52 50 52 52 50 47 37 30 33 34 33 31 31 33 35 38 41 43 45 48 48 50 50 50 54 55 55 58 59 59 59 60 61 63 66 72 76 80 81 85 88 90 90 90 87 83 82
49 51 49 49 51 52 51 48 36 35 38 39 37 36 35 35 39 42 46 49 50 52 54 55 55 56 56 56 58 61 62 60 64 65 67 69 75 79 82 85 88 91 91 91 90 86 84 84 84
51 50 50 52 52 51 51 48 46 42 40 42 43 43 42 42 44 46 49 54 55 55 56 57 57 58 59 61 63 63 62 66 67 69 72 76 81 84 86 89 91 92 88 87 86 86 86 88 89
Wind_Direction
87 70 60 55 49 40 51 50 57 71 70 57 64 71 67 63 69 78 76 77 73 71 70 75 75 66 64 58 65 63 276 255 252 251 252 253 254 262 268 262 258 253 261 262 266 268 273 281 287
86 72 54 45 40 39 35 33 47 74 84 67 65 65 67 59 44 48 51 58 63 63 59 56 55 57 61 55 50 55 57 54 360 265 260 263 260 259 260 266 266 264 264 264 262 265 268 271 275
91 70 50 39 35 29 22 25 26 58 94 87 73 69 59 60 55 44 41 43 38 34 34 41 40 37 33 38 30 318 326 341 328 301 285 277 271 268 266 264 262 261 263 266 270 270 268 268 267
100 55 30 28 27 17 9 11 14 21 55 92 63 63 56 56 52 59 62 63 68 62 44 17 7 357 349 352 3 6 349 305 287 281 279 273 269 269 268 273 274 271 274 273 269 267 265 265 265
151 360 354 1 6 1 360 358 347 350 290 307 347 10 29 34 38 55 60 73 74 70 61 49 347 325 321 307 298 303 307 305 306 300 289 288 286 285 283 283 282 280 276 273 275 275 274 273 270
274 314 329 336 344 346 347 339 309 306 273 269 289 306 325 334 320 285 262 261 275 265 250 256 303 307 300 295 288 288 290 293 293 290 287 289 294 290 290 289 288 289 291 290 288 284 281 279 275
290 305 316 319 321 327 332 318 284 271 295 276 276 286 298 306 309 296 285 290 292 289 291 288 283 281 297 308 301 289 285 287 288 289 290 291 292 291 292 294 294 290 286 285 286 285 284 283 281
291 300 305 308 311 313 317 307 271 264 263 276 285 287 293 293 290 287 287 285 282 285 292 293 291 287 283 282 289 297 303 301 297 294 295 295 293 293 294 294 293 289 287 285 285 283 282 281 281
286 293 295 302 306 304 302 293 272 265 269 268 281 286 285 285 273 272 281 286 286 283 280 280 285 289 289 287 286 288 290 296 301 303 303 304 301 299 298 293 292 292 291 289 286 284 282 282 280
284 287 291 297 301 296 294 281 268 271 275 266 266 276 276 265 259 258 262 268 275 280 285 284 284 285 288 291 291 293 293 293 291 293 297 299 299 300 297 294 294 292 290 288 287 286 285 284 283
279 284 289 295 296 290 284 275 272 278 270 260 262 270 277 275 265 263 266 264 265 270 272 275 275 282 289 293 293 291 292 294 300 301 301 296 291 285 283 284 284 284 286 288 289 287 286 284 283
276 281 288 295 294 285 278 272 273 280 274 265 263 261 271 276 275 267 263 260 269 282 284 276 272 270 276 280 285 288 293 297 294 296 292 291 292 293 293 293 289 287 284 284 284 286 285 284 283
277 280 283 292 292 280 275 275 273 278 274 268 264 262 265 269 273 272 268 262 272 283 283 279 272 267 263 269 278 285 285 284 287 290 293 296 296 295 295 293 294 294 295 293 290 287 288 287 286
277 280 282 286 287 277 276 278 276 273 269 265 267 268 268 267 264 264 268 273 279 281 277 271 267 263 264 267 269 271 276 281 286 288 291 292 293 294 295 295 295 295 293 292 290 289 286 284 283
277 278 279 280 280 275 275 277 272 267 266 265 269 270 270 269 266 266 271 274 279 278 274 270 268 268 266 267 267 269 272 277 281 283 287 290 294 295 295 294 293 294 294 293 291 289 288 288 287
276 276 277 276 274 273 275 273 269 266 266 266 266 266 268 270 270 269 270 273 274 272 270 267 267 268 268 269 268 268 270 272 273 276 281 283 287 292 294 296 297 296 295 295 294 294 293 291 287
274 273 272 275 272 270 271 271 267 265 264 264 265 268 269 273 274 273 271 272 273 272 270 267 266 268 272 274 275 276 278 280 282 282 281 283 284 285 286 286 286 287 289 290 293 295 293 291 289
269 271 274 272 267 267 265 266 264 264 262 265 269 271 273 276 276 275 272 268 265 265 267 265 264 267 272 276 278 282 284 281 279 281 281 282 282 282 281 280 280 281 283 284 283 286 286 285 287
271 271 269 270 268 264 262 260 264 259 262 269 270 273 278 277 274 273 271 270 271 268 267 272 275 273 273 274 277 278 280 279 279 277 277 278 279 277 280 283 287 287 283 284 284 282 280 281 281
269 269 270 265 264 263 264 263 260 262 260 269 272 275 277 277 274 270 273 273 274 273 271 272 274 277 277 277 277 278 278 278 278 280 286 286 286 287 286 286 286 284 284 284 284 283 281 280 279
270 269 268 266 266 265 267 264 260 259 264 272 275 274 274 273 271 267 268 273 274 271 267 267 269 270 276 276 278 279 280 284 286 287 288 288 288 290 290 288 286 285 284 284 283 282 283 283 283
267 268 268 269 270 271 267 265 260 258 258 270 274 271 269 267 265 266 268 274 276 272 271 269 269 272 273 280 281 283 286 289 291 290 291 292 290 290 288 285 286 286 285 285 285 285 284 283 282
268 269 269 270 271 270 267 270 265 262 266 272 274 269 265 263 264 266 269 270 271 268 266 267 269 271 274 279 281 282 285 288 290 290 288 286 286 285 285 285 285 286 286 285 285 285 284 284 284
267 271 269 269 269 266 270 270 268 272 274 270 270 267 262 262 265 267 268 270 270 269 267 267 270 272 276 281 285 287 286 286 288 290 288 287 287 287 287 288 289 289 289 290 290 291 291 290 288
268 273 272 270 265 269 275 271 267 272 275 269 264 260 260 263 267 270 274 274 273 273 274 276 277 278 283 287 289 287 284 286 287 287 289 289 289 289 289 289 291 293 293 292 293 293 291 289 288
264 268 271 271 271 274 272 270 272 269 270 265 265 262 260 265 267 271 274 276 278 277 276 278 279 280 283 286 289 290 291 289 288 288 290 292 292 292 291 290 291 292 294 295 294 292 292 291 291
261 264 274 270 266 270 272 273 271 269 270 269 268 270 268 265 266 270 273 273 273 274 277 279 280 281 286 288 288 290 291 291 290 291 293 294 294 294 295 295 297 298 297 294 293 293 293 291 291
262 267 268 266 266 271 273 273 272 268 268 272 275 274 275 274 274 275 274 274 273 273 276 279 280 283 287 286 288 290 289 289 290 295 295 296 297 298 298 297 295 294 293 293 294 294 293 292 292
265 263 263 264 262 265 268 270 265 262 270 277 275 277 280 283 280 276 277 278 278 280 283 284 284 285 288 287 288 290 292 292 294 295 297 299 300 299 296 294 293 293 294 295 295 295 295 295 294
258 257 257 259 263 262 264 264 261 265 270 272 276 282 284 281 280 279 280 280 279 282 285 285 287 288 289 290 291 290 291 293 294 295 298 299 298 296 295 294 294 295 296 297 298 298 298 297 296
Height
5871 5870 5870 5870 5872 5869 5869 5869 5867 5867 5867 5866 5865 5864 5864 5863 5863 5865 5863 5862 5862 5862 5862 5861 5861 5861 5861 5861 5861 5860 5860 5860 5861 5861 5862 5863 5864 5865 5866 5866 5867 5867 5868 5868 5868 5869 5870 5870 5871
5871 5871 5871 5871 5871 5870 5870 5869 5869 5868 5867 5866 5865 5865 5865 5865 5864 5864 5864 5864 5863 5863 5863 5863 5863 5862 5862 5862 5862 5862 5862 5861 5861 5862 5862 5862 5863 5864 5864 5865 5866 5866 5867 5867 5867 5868 5868 5869 5870
5872 5872 5872 5871 5871 5871 5871 5869 5869 5868 5868 5867 5866 5866 5866 5866 5865 5865 5865 5864 5864 5864 5864 5864 5864 5863 5864 5863 5863 5863 5862 5862 5862 5862 5862 5862 5863 5863 5864 5865 5865 5865 5866 5865 5865 5866 5867 5867 5868
5872 5873 5873 5872 5871 5872 5870 5870 5869 5868 5867 5867 5867 5866 5866 5866 5865 5865 5865 5864 5864 5863 5863 5863 5863 5863 5863 5863 5863 5863 5862 5863 5864 5864 5863 5863 5863 5863 5864 5864 5864 5865 5865 5864 5865 5865 5866 5866 5866
5872 5872 5872 5871 5872 5871 5870 5869 5869 5868 5867 5866 5866 5866 5865 5865 5865 5865 5864 5864 5863 5863 5862 5862 5862 5862 5862 5862 5862 5862 5862 5863 5864 5864 5864 5864 5864 5864 5864 5864 5864 5864 5864 5864 5864 5864 5865 5864 5864
5871 5872 5871 5871 5871 5870 5870 5869 5868 5868 5867 5866 5865 5865 5865 5864 5864 5864 5863 5863 5863 5863 5863 5862 5862 5861 5861 5861 5861 5861 5862 5862 5862 5862 5863 5863 5864 5864 5864 5864 5864 5863 5863 5863 5863 5863 5863 5863 5863
5871 5871 5871 5870 5870 5869 5868 5868 5867 5867 5867 5866 5865 5864 5864 5863 5862 5862 5863 5862 5861 5861 5861 5861 5861 5861 5861 5860 5860 5860 5860 5860 5860 5860 5860 5861 5861 5861 5862 5861 5862 5862 5862 5862 5862 5862 5861 5861 5860
5870 5870 5870 5869 5868 5868 5867 5866 5866 5865 5865 5865 5864 5863 5863 5861 5861 5861 5861 5861 5860 5859 5859 5858 5858 5859 5859 5859 5859 5859 5859 5858 5859 5859 5858 5858 5858 5858 5858 5858 5858 5859 5859 5859 5859 5859 5858 5858 5858
5867 5868 5868 5868 5866 5865 5864 5864 5864 5863 5863 5863 5862 5862 5862 5860 5860 5859 5859 5858 5858 5857 5857 5857 5857 5856 5856 5856 5856 5857 5857 5857 5857 5856 5856 5856 5856 5856 5856 5856 5856 5856 5856 5856 5856 5855 5854 5854 5854
5865 5864 5865 5865 5864 5862 5861 5861 5861 5861 5861 5861 5860 5860 5860 5859 5858 5858 5857 5857 5856 5855 5854 5854 5854 5854 5854 5854 5854 5854 5854 5854 5853 5853 5854 5854 5853 5852 5853 5853 5853 5853 5852 5852 5853 5853 5852 5852 5851
5862 5861 5860 5861 5860 5859 5858 5858 5858 5858 5858 5858 5857 5856 5856 5856 5856 5855 5855 5855 5854 5854 5853 5853 5852 5851 5851 5851 5851 5851 5851 5852 5852 5851 5851 5850 5849 5849 5848 5848 5848 5848 5848 5847 5847 5846 5847 5847 5846
5858 5857 5857 5856 5856 5855 5855 5855 5855 5855 5855 5855 5855 5854 5853 5852 5852 5852 5852 5853 5852 5851 5850 5850 5850 5850 5849 5849 5849 5849 5849 5849 5848 5848 5847 5847 5846 5846 5845 5845 5844 5844 5843 5843 5842 5841 5840 5840 5839
5854 5853 5852 5852 5851 5851 5851 5851 5852 5851 5851 5850 5850 5850 5850 5850 5849 5848 5848 5849 5849 5848 5847 5846 5845 5845 5845 5845 5846 5846 5846 5845 5844 5843 5842 5841 5841 5841 5841 5840 5839 5839 5838 5838 5838 5836 5835 5834 5834
5849 5848 5848 5847 5847 5846 5846 5847 5847 5848 5847 5846 5846 5846 5846 5845 5845 5845 5845 5844 5844 5844 5843 5842 5842 5841 5840 5840 5840 5840 5840 5841 5840 5839 5838 5838 5837 5836 5835 5834 5833 5833 5832 5831 5831 5830 5828 5827 5827
5844 5843 5842 5842 5842 5842 5840 5842 5842 5842 5842 5842 5841 5841 5841 5841 5841 5841 5841 5840 5840 5839 5838 5838 5838 5837 5837 5837 5836 5836 5836 5836 5836 5835 5835 5834 5833 5832 5831 5830 5828 5826 5825 5824 5823 5822 5821 5820 5819
5838 5837 5837 5836 5835 5836 5834 5836 5836 5836 5836 5837 5837 5836 5836 5836 5836 5836 5835 5835 5835 5834 5833 5833 5834 5834 5833 5833 5833 5832 5832 5832 5831 5830 5829 5828 5827 5826 5825 5825 5823 5822 5820 5818 5817 5814 5813 5812 5810
5831 5831 5830 5829 5829 5828 5828 5827 5830 5829 5830 5830 5831 5831 5831 5831 5831 5830 5830 5829 5829 5829 5829 5829 5829 5828 5828 5829 5828 5828 5827 5826 5825 5824 5823 5822 5820 5819 5818 5817 5815 5814 5812 5811 5810 5808 5806 5804 5803
5821 5824 5824 5824 5823 5820 5821 5822 5823 5822 5824 5825 5825 5824 5824 5825 5824 5824 5824 5824 5824 5824 5824 5823 5823 5823 5823 5823 5823 5823 5822 5821 5819 5817 5816 5815 5814 5811 5809 5808 5806 5804 5803 5801 5799 5798 5796 5795 5793
5816 5816 5817 5816 5815 5813 5814 5814 5813 5815 5817 5818 5818 5818 5818 5818 5817 5817 5817 5817 5817 5817 5817 5817 5817 5816 5816 5816 5815 5815 5814 5813 5811 5810 5809 5808 5805 5803 5801 5799 5797 5795 5793 5791 5789 5786 5784 5782 5779
5809 5809 5811 5808 5807 5804 5805 5806 5807 5806 5811 5810 5810 5810 5810 5810 5809 5809 5809 5810 5810 5810 5810 5810 5810 5811 5810 5809 5809 5808 5808 5806 5804 5803 5801 5800 5797 5795 5792 5789 5786 5783 5781 5778 5776 5773 5771 5769 5766
5801 5800 5803 5800 5797 5797 5796 5796 5799 5801 5802 5802 5802 5802 5801 5802 5802 5802 5803 5803 5802 5802 5802 5802 5803 5803 5803 5802 5801 5800 5799 5798 5797 5794 5792 5789 5787 5784 5782 5778 5775 5772 5768 5766 5763 5758 5755 5753 5751
5791 5791 5793 5791 5789 5789 5785 5782 5789 5793 5796 5795 5794 5793 5793 5794 5795 5795 5796 5795 5795 5796 5795 5795 5795 5795 5795 5794 5792 5791 5790 5788 5786 5785 5783 5781 5778 5775 5771 5768 5764 5761 5757 5752 5748 5746 5742 5738 5735
5783 5783 5784 5783 5781 5777 5776 5773 5781 5785 5787 5786 5785 5785 5786 5787 5787 5787 5787 5788 5788 5787 5787 5787 5787 5786 5786 5785 5784 5783 5781 5779 5776 5774 5770 5768 5764 5761 5758 5755 5751 5747 5744 5739 5734 5730 5726 5721 5718
5774 5773 5774 5772 5770 5763 5770 5771 5769 5771 5779 5776 5777 5778 5778 5778 5779 5779 5779 5780 5779 5779 5778 5778 5777 5776 5776 5774 5773 5771 5769 5767 5764 5762 5758 5754 5751 5748 5745 5741 5736 5732 5728 5724 5719 5714 5709 5704 5700
5765 5764 5762 5758 5755 5756 5758 5758 5763 5761 5765 5766 5767 5768 5769 5769 5770 5770 5771 5771 5770 5770 5769 5769 5768 5767 5766 5764 5761 5758 5755 5753 5750 5748 5745 5741 5737 5733 5729 5725 5720 5716 5711 5707 5701 5696 5690 5684 5678
5752 5754 5752 5748 5747 5747 5746 5745 5749 5756 5756 5757 5758 5759 5760 5761 5761 5762 5762 5761 5761 5760 5759 5758 5757 5755 5753 5752 5749 5746 5744 5741 5736 5731 5729 5726 5723 5718 5713 5709 5704 5698 5693 5687 5680 5673 5667 5661 5655
5739 5739 5746 5739 5738 5734 5734 5738 5741 5744 5747 5747 5748 5750 5751 5753 5753 5753 5753 5752 5751 5749 5748 5747 5746 5744 5742 5739 5737 5734 5731 5729 5725 5719 5714 5710 5706 5702 5698 5692 5686 5679 5673 5666 5659 5652 5645 5639 5632
5728 5731 5731 5729 5727 5726 5727 5727 5732 5735 5735 5736 5738 5739 5741 5743 5743 5743 5743 5742 5740 5739 5737 5735 5733 5730 5727 5725 5722 5719 5715 5711 5708 5704 5699 5695 5690 5684 5678 5672 5665 5658 5650 5642 5636 5630 5622 5615 5609
5718 5716 5717 5718 5717 5715 5717 5719 5724 5723 5724 5726 5728 5729 5731 5732 5732 5731 5731 5729 5728 5726 5725 5723 5720 5716 5713 5709 5705 5702 5699 5695 5692 5688 5683 5677 5671 5665 5659 5652 5645 5637 5628 5620 5613 5606 5599 5592 5586
5701 5703 5704 5703 5707 5708 5707 5710 5711 5713 5715 5716 5717 5718 5719 5720 5720 5719 5719 5717 5715 5714 5712 5708 5704 5702 5698 5695 5691 5687 5683 5680 5674 5670 5664 5658 5652 5646 5638 5631 5622 5614 5605 5597 5589 5583 5576 5569 5562